Temp
-11 -11 -11 -12 -11 -11 -11 -11 -11 -12 -12 -11 -11 -11 -10 -10 -10 -10 -10 -10 -10 -10 -10 -10 -10 -10 -11 -11 -11 -10 -10 -10 -11 -11 -11 -11 -11 -12 -12 -12 -12 -12 -12 -12
-11 -11 -12 -12 -12 -12 -12 -11 -12 -12 -11 -11 -11 -10 -11 -10 -11 -10 -10 -10 -10 -10 -10 -10 -10 -11 -11 -11 -11 -10 -10 -10 -11 -11 -11 -11 -12 -12 -12 -12 -12 -12 -12 -12
-12 -11 -12 -12 -12 -12 -12 -12 -12 -12 -11 -11 -11 -10 -10 -11 -10 -11 -10 -10 -10 -10 -10 -10 -10 -11 -11 -11 -11 -10 -10 -10 -11 -11 -11 -12 -12 -12 -13 -13 -12 -12 -13 -13
-12 -11 -12 -12 -12 -13 -12 -12 -12 -12 -12 -12 -11 -9 -10 -10 -11 -11 -10 -10 -10 -10 -10 -11 -11 -11 -11 -11 -11 -11 -11 -11 -11 -11 -12 -12 -12 -13 -13 -13 -13 -13 -13 -13
-11 -11 -12 -12 -12 -13 -13 -12 -12 -12 -12 -12 -11 -10 -9 -10 -10 -11 -11 -11 -11 -11 -11 -11 -11 -11 -11 -11 -11 -11 -11 -11 -12 -12 -12 -13 -13 -13 -13 -14 -14 -14 -14 -14
-12 -12 -12 -13 -13 -13 -13 -13 -13 -13 -12 -11 -11 -11 -9 -10 -11 -11 -11 -11 -11 -11 -11 -12 -12 -12 -12 -12 -12 -12 -12 -12 -12 -13 -13 -13 -14 -14 -15 -15 -15 -15 -15 -15
-13 -13 -13 -13 -13 -13 -13 -14 -14 -13 -12 -11 -11 -11 -10 -10 -11 -11 -12 -12 -12 -12 -12 -12 -12 -12 -12 -13 -13 -13 -13 -13 -13 -13 -14 -14 -15 -15 -16 -16 -16 -16 -16 -16
-14 -14 -13 -14 -14 -14 -14 -14 -13 -13 -13 -12 -11 -11 -10 -11 -11 -12 -12 -12 -12 -12 -12 -12 -12 -12 -13 -13 -13 -13 -13 -13 -13 -13 -14 -15 -15 -16 -16 -16 -16 -16 -16 -17
-14 -14 -14 -14 -14 -14 -13 -13 -15 -14 -13 -12 -11 -11 -11 -11 -12 -12 -12 -13 -13 -13 -13 -13 -13 -13 -13 -13 -13 -13 -14 -14 -14 -14 -15 -15 -16 -16 -17 -17 -17 -17 -17 -17
-14 -14 -14 -14 -14 -14 -13 -13 -14 -14 -13 -13 -12 -11 -11 -11 -11 -12 -12 -13 -13 -13 -13 -13 -13 -13 -13 -13 -14 -14 -14 -14 -14 -15 -16 -16 -16 -17 -17 -17 -17 -17 -17 -17
-15 -14 -13 -13 -12 -14 -14 -14 -14 -14 -14 -13 -12 -11 -11 -11 -11 -12 -12 -12 -13 -13 -13 -13 -13 -13 -14 -14 -14 -14 -15 -15 -16 -17 -17 -17 -17 -17 -17 -17 -17 -17 -18 -18
-15 -15 -13 -13 -13 -14 -13 -13 -14 -14 -13 -13 -13 -10 -11 -11 -11 -11 -12 -13 -13 -14 -13 -14 -14 -14 -14 -14 -15 -15 -15 -16 -16 -17 -17 -17 -17 -18 -18 -18 -18 -18 -18 -19
-15 -15 -14 -14 -12 -12 -13 -14 -14 -14 -14 -12 -13 -10 -12 -12 -12 -13 -13 -14 -14 -14 -14 -14 -14 -15 -15 -15 -16 -16 -16 -17 -17 -17 -17 -18 -18 -18 -18 -19 -19 -19 -19 -19
-15 -15 -14 -13 -14 -14 -14 -14 -15 -15 -14 -11 -12 -12 -13 -13 -13 -14 -14 -14 -14 -14 -14 -14 -14 -15 -16 -16 -16 -17 -17 -17 -17 -18 -18 -18 -19 -19 -19 -19 -20 -20 -20 -20
-15 -14 -14 -14 -14 -15 -14 -14 -14 -14 -12 -14 -10 -13 -14 -14 -14 -14 -14 -14 -14 -15 -15 -15 -15 -16 -16 -17 -17 -17 -17 -18 -18 -18 -19 -19 -19 -20 -20 -20 -20 -20 -21 -22
-15 -14 -15 -14 -14 -15 -15 -14 -13 -13 -13 -13 -12 -12 -15 -14 -15 -15 -15 -15 -15 -15 -15 -16 -16 -16 -17 -17 -17 -17 -18 -18 -19 -19 -20 -20 -20 -20 -20 -21 -21 -22 -23 -24
-15 -15 -15 -14 -15 -15 -15 -11 -14 -14 -13 -14 -14 -13 -15 -15 -15 -15 -16 -16 -16 -16 -16 -17 -17 -17 -17 -17 -18 -18 -18 -19 -19 -20 -21 -21 -21 -21 -21 -22 -23 -24 -25 -25
-15 -15 -16 -15 -15 -16 -12 -14 -14 -14 -14 -14 -14 -15 -15 -16 -16 -15 -16 -16 -16 -17 -17 -17 -17 -17 -18 -18 -19 -19 -19 -20 -20 -21 -21 -21 -22 -23 -23 -24 -25 -25 -25 -26
-15 -16 -16 -16 -16 -15 -14 -13 -14 -14 -13 -15 -14 -15 -16 -16 -16 -16 -16 -17 -17 -17 -18 -18 -18 -18 -19 -19 -20 -20 -20 -21 -21 -22 -22 -23 -23 -24 -25 -26 -26 -26 -27 -27
-17 -17 -17 -17 -17 -16 -14 -15 -15 -16 -14 -14 -15 -16 -16 -17 -16 -16 -17 -17 -18 -18 -18 -19 -19 -19 -20 -20 -20 -20 -21 -21 -22 -23 -23 -24 -25 -25 -25 -26 -26 -27 -27 -28
-17 -17 -17 -17 -17 -17 -16 -17 -17 -17 -16 -16 -17 -17 -17 -17 -17 -18 -18 -18 -18 -19 -19 -19 -19 -20 -20 -21 -21 -22 -22 -23 -23 -24 -24 -25 -25 -26 -26 -27 -27 -27 -28 -29
-17 -17 -17 -18 -18 -18 -17 -18 -18 -18 -18 -18 -18 -17 -18 -17 -18 -19 -19 -19 -19 -19 -19 -20 -20 -21 -21 -22 -22 -22 -23 -24 -24 -24 -25 -26 -26 -27 -28 -28 -28 -28 -29 -30
-18 -18 -18 -18 -18 -18 -18 -18 -18 -19 -19 -19 -19 -18 -18 -19 -19 -19 -19 -20 -20 -20 -21 -21 -22 -22 -22 -23 -23 -23 -24 -25 -25 -25 -26 -27 -28 -28 -28 -28 -29 -30 -31 -32
-19 -19 -19 -19 -19 -19 -19 -19 -19 -19 -19 -19 -19 -19 -19 -19 -20 -20 -20 -20 -21 -21 -22 -22 -22 -23 -23 -23 -24 -24 -25 -25 -26 -27 -27 -28 -28 -29 -29 -30 -31 -31 -32 -33
-20 -20 -20 -20 -20 -20 -20 -20 -20 -20 -20 -20 -20 -20 -20 -20 -21 -21 -21 -21 -22 -22 -22 -23 -23 -24 -24 -25 -25 -26 -26 -26 -27 -28 -28 -29 -29 -30 -30 -31 -32 -33 -34 -34
-21 -22 -22 -22 -21 -21 -21 -21 -22 -22 -21 -21 -21 -22 -22 -22 -22 -22 -22 -23 -23 -23 -24 -24 -25 -25 -26 -26 -26 -26 -27 -28 -29 -29 -29 -30 -30 -31 -32 -33 -34 -34 -35 -35
Height
5814 5814 5819 5817 5815 5815 5816 5816 5817 5816 5815 5813 5814 5814 5813 5815 5817 5818 5818 5818 5818 5818 5817 5817 5817 5817 5817 5817 5817 5817 5817 5816 5816 5816 5815 5815 5814 5813 5811 5810 5809 5808 5805 5803
5807 5807 5810 5807 5808 5808 5809 5809 5811 5808 5807 5804 5805 5806 5807 5806 5811 5810 5810 5810 5810 5810 5809 5809 5809 5810 5810 5810 5810 5810 5810 5811 5810 5809 5809 5808 5808 5806 5804 5803 5801 5800 5797 5795
5797 5798 5799 5801 5800 5800 5801 5800 5803 5800 5797 5797 5796 5796 5799 5801 5802 5802 5802 5802 5801 5802 5802 5802 5803 5803 5802 5802 5802 5802 5803 5803 5803 5802 5801 5800 5799 5798 5797 5794 5792 5789 5787 5784
5787 5788 5792 5792 5792 5793 5791 5791 5793 5791 5789 5789 5785 5782 5789 5793 5796 5795 5794 5793 5793 5794 5795 5795 5796 5795 5795 5796 5795 5795 5795 5795 5795 5794 5792 5791 5790 5788 5786 5785 5783 5781 5778 5775
5780 5780 5781 5783 5786 5784 5783 5783 5784 5783 5781 5777 5776 5773 5781 5785 5787 5786 5785 5785 5786 5787 5787 5787 5787 5788 5788 5787 5787 5787 5787 5786 5786 5785 5784 5783 5781 5779 5776 5774 5770 5768 5764 5761
5770 5769 5772 5774 5776 5775 5774 5773 5774 5772 5770 5763 5770 5771 5769 5771 5779 5776 5777 5778 5778 5778 5779 5779 5779 5780 5779 5779 5778 5778 5777 5776 5776 5774 5773 5771 5769 5767 5764 5762 5758 5754 5751 5748
5761 5761 5761 5764 5765 5765 5765 5764 5762 5758 5755 5756 5758 5758 5763 5761 5765 5766 5767 5768 5769 5769 5770 5770 5771 5771 5770 5770 5769 5769 5768 5767 5766 5764 5761 5758 5755 5753 5750 5748 5745 5741 5737 5733
5748 5751 5753 5756 5757 5753 5752 5754 5752 5748 5747 5747 5746 5745 5749 5756 5756 5757 5758 5759 5760 5761 5761 5762 5762 5761 5761 5760 5759 5758 5757 5755 5753 5752 5749 5746 5744 5741 5736 5731 5729 5726 5723 5718
5735 5737 5738 5742 5742 5742 5739 5739 5746 5739 5738 5734 5734 5738 5741 5744 5747 5747 5748 5750 5751 5753 5753 5753 5753 5752 5751 5749 5748 5747 5746 5744 5742 5739 5737 5734 5731 5729 5725 5719 5714 5710 5706 5702
5722 5724 5725 5726 5728 5729 5728 5731 5731 5729 5727 5726 5727 5727 5732 5735 5735 5736 5738 5739 5741 5743 5743 5743 5743 5742 5740 5739 5737 5735 5733 5730 5727 5725 5722 5719 5715 5711 5708 5704 5699 5695 5690 5684
5709 5709 5710 5711 5713 5719 5718 5716 5717 5718 5717 5715 5717 5719 5724 5723 5724 5726 5728 5729 5731 5732 5732 5731 5731 5729 5728 5726 5725 5723 5720 5716 5713 5709 5705 5702 5699 5695 5692 5688 5683 5677 5671 5665
5697 5695 5696 5698 5699 5701 5701 5703 5704 5703 5707 5708 5707 5710 5711 5713 5715 5716 5717 5718 5719 5720 5720 5719 5719 5717 5715 5714 5712 5708 5704 5702 5698 5695 5691 5687 5683 5680 5674 5670 5664 5658 5652 5646
5683 5681 5685 5687 5686 5686 5688 5696 5696 5697 5695 5696 5695 5700 5701 5704 5704 5705 5706 5706 5706 5705 5705 5705 5703 5701 5700 5698 5695 5692 5689 5687 5684 5679 5675 5671 5667 5662 5657 5652 5644 5637 5632 5625
5666 5666 5671 5673 5678 5677 5679 5682 5683 5681 5681 5685 5684 5691 5691 5692 5692 5691 5691 5693 5692 5691 5692 5689 5687 5686 5684 5682 5679 5677 5674 5670 5666 5662 5657 5653 5648 5643 5638 5631 5624 5618 5610 5602
5652 5653 5658 5665 5666 5664 5663 5667 5668 5667 5674 5667 5680 5676 5677 5679 5678 5678 5679 5679 5679 5677 5675 5673 5672 5671 5668 5666 5663 5660 5657 5653 5649 5644 5640 5635 5630 5625 5618 5610 5605 5598 5590 5581
5637 5641 5643 5647 5653 5651 5648 5653 5652 5655 5659 5655 5664 5664 5660 5663 5667 5666 5666 5666 5664 5662 5660 5659 5657 5654 5652 5650 5647 5644 5641 5637 5632 5629 5623 5617 5612 5605 5598 5591 5584 5576 5568 5561
5624 5627 5628 5631 5634 5634 5627 5643 5640 5642 5643 5646 5645 5657 5652 5648 5649 5651 5649 5648 5649 5647 5645 5644 5640 5638 5637 5634 5630 5628 5623 5619 5615 5611 5604 5598 5592 5585 5578 5570 5563 5555 5548 5541
5608 5612 5612 5615 5613 5605 5626 5626 5626 5626 5630 5628 5631 5636 5634 5633 5631 5633 5634 5632 5632 5631 5628 5626 5624 5622 5619 5617 5614 5609 5605 5601 5598 5592 5587 5579 5572 5565 5558 5552 5544 5535 5529 5522
5592 5595 5595 5595 5595 5597 5607 5608 5610 5609 5618 5614 5613 5616 5616 5615 5616 5619 5617 5617 5615 5613 5612 5610 5607 5604 5602 5600 5596 5592 5588 5584 5579 5573 5566 5558 5551 5546 5542 5535 5526 5518 5511 5505
5577 5579 5580 5579 5576 5576 5595 5592 5592 5591 5595 5600 5599 5601 5601 5600 5601 5605 5600 5597 5598 5597 5594 5593 5591 5589 5586 5582 5578 5574 5569 5563 5557 5551 5545 5540 5534 5529 5524 5515 5508 5501 5494 5486
5561 5562 5562 5564 5561 5563 5574 5576 5574 5575 5585 5581 5581 5583 5585 5584 5584 5583 5583 5582 5581 5579 5578 5576 5574 5570 5567 5564 5560 5555 5549 5543 5537 5532 5528 5523 5518 5510 5503 5496 5491 5483 5475 5467
5547 5548 5550 5551 5548 5548 5559 5559 5561 5563 5562 5564 5565 5567 5567 5566 5566 5566 5566 5565 5564 5562 5559 5557 5554 5550 5547 5544 5540 5535 5532 5525 5520 5515 5510 5505 5498 5492 5485 5479 5472 5465 5458 5451
5532 5535 5536 5538 5536 5537 5540 5544 5546 5547 5546 5548 5549 5551 5551 5551 5552 5551 5551 5550 5547 5544 5541 5538 5535 5532 5528 5525 5521 5518 5513 5507 5502 5496 5491 5485 5478 5473 5468 5461 5454 5447 5440 5434
5517 5518 5519 5522 5521 5521 5522 5526 5529 5531 5532 5533 5536 5537 5537 5537 5536 5535 5533 5532 5529 5527 5524 5522 5519 5515 5511 5506 5503 5500 5496 5490 5484 5477 5471 5467 5462 5455 5450 5443 5437 5430 5424 5418
5503 5503 5505 5503 5505 5507 5506 5508 5513 5515 5517 5519 5520 5520 5521 5521 5521 5519 5518 5515 5512 5510 5508 5505 5501 5497 5492 5487 5484 5480 5477 5471 5466 5460 5454 5448 5444 5438 5432 5426 5420 5414 5408 5402
5488 5488 5484 5481 5488 5489 5491 5492 5497 5501 5503 5503 5503 5504 5503 5502 5500 5499 5498 5495 5493 5491 5488 5486 5481 5478 5473 5470 5466 5462 5456 5451 5447 5443 5438 5431 5426 5420 5414 5409 5403 5399 5393 5388
Wind_Speed
39 40 35 35 39 39 36 35 33 34 35 34 34 33 34 32 30 30 30 30 29 29 29 29 28 28 27 26 25 26 28 29 30 30 32 33 34 35 35 36 36 38 39 40
41 44 34 38 36 37 35 35 31 33 34 39 38 37 36 36 31 33 33 33 32 32 30 30 29 29 29 29 30 29 31 33 35 35 36 36 36 36 36 36 35 38 40 42
44 42 37 35 35 34 35 36 34 38 40 42 43 42 39 37 33 34 36 36 36 34 33 32 32 32 33 33 32 32 32 34 34 34 36 37 37 38 39 39 40 43 44 46
41 41 35 36 37 35 37 38 37 39 43 43 47 48 42 38 35 37 36 36 34 33 33 33 34 35 35 35 34 32 32 33 34 35 35 34 34 36 39 43 47 49 52 54
42 40 39 38 34 37 39 41 41 43 46 48 49 50 41 41 36 37 37 36 35 34 34 35 37 37 36 36 36 34 35 37 38 38 37 37 38 40 41 45 48 51 54 58
43 44 39 38 38 39 43 45 45 46 47 54 49 49 46 45 38 40 35 34 32 33 35 37 36 36 37 37 36 37 39 40 40 41 42 42 43 45 48 49 52 55 58 61
41 43 44 40 40 42 43 43 46 53 56 54 52 52 47 45 37 34 32 33 35 35 35 35 34 35 36 37 39 40 41 41 43 46 48 48 48 49 51 53 54 57 58 60
45 45 43 44 44 49 51 48 49 55 56 54 51 51 49 39 35 32 31 32 33 34 35 34 35 38 39 39 40 42 44 47 49 50 49 51 54 54 53 53 55 58 60 63
48 50 51 50 53 54 56 54 42 48 50 54 51 46 43 37 32 32 32 31 31 31 33 35 36 40 42 41 42 45 47 49 50 53 54 54 57 59 58 55 57 60 62 65
53 53 53 56 54 55 57 55 52 50 52 52 50 47 37 30 33 34 33 31 31 33 35 38 41 43 45 48 48 50 50 50 54 55 55 58 59 59 59 60 61 63 66 72
53 56 58 58 55 49 49 51 49 49 51 52 51 48 36 35 38 39 37 36 35 35 39 42 46 49 50 52 54 55 55 56 56 56 58 61 62 60 64 65 67 69 75 79
56 56 58 56 54 50 51 50 50 52 52 51 51 48 46 42 40 42 43 43 42 42 44 46 49 54 55 55 56 57 57 58 59 61 63 63 62 66 67 69 72 76 81 84
55 54 52 52 55 54 52 45 44 45 48 49 54 47 48 45 45 46 48 48 48 49 51 53 57 59 60 60 60 58 58 60 63 62 61 63 68 69 71 75 78 81 84 87
54 55 52 52 47 48 46 45 45 47 48 46 48 45 48 48 49 52 53 52 56 59 60 62 64 64 64 63 61 61 63 64 62 61 65 69 70 71 75 79 82 86 88 91
56 55 53 49 48 49 53 50 49 48 47 52 45 50 51 52 56 57 58 60 63 62 64 65 65 65 65 64 65 67 67 66 65 66 70 72 73 76 78 83 86 89 91 89
59 56 55 53 50 54 55 56 56 56 53 56 53 55 58 60 59 60 59 62 64 64 65 66 65 65 66 69 70 71 71 70 70 71 73 74 76 78 82 86 89 89 85 84
58 55 56 58 57 56 62 53 57 58 59 56 58 55 56 60 63 63 63 61 63 61 64 65 66 65 68 70 72 73 74 74 73 73 72 75 78 81 83 86 85 82 82 84
65 64 61 60 62 66 62 60 61 60 59 61 59 58 58 61 63 62 58 58 59 62 63 65 66 67 68 71 73 74 74 72 71 71 74 77 80 80 81 80 79 81 84 82
64 63 61 65 67 67 66 69 64 63 61 60 64 64 63 62 64 63 58 58 60 61 61 62 65 68 70 70 70 70 70 70 72 74 75 77 79 78 77 78 81 83 76 74
57 59 60 59 62 67 66 63 63 62 63 61 59 57 58 58 58 57 58 59 60 61 63 64 64 65 67 69 69 69 70 73 72 72 75 76 76 77 80 80 75 72 71 72
56 56 58 58 61 62 56 57 60 61 61 61 59 57 55 55 57 58 58 60 62 63 64 66 67 67 65 66 68 71 72 70 71 74 75 76 77 79 76 70 69 70 72 72
56 54 55 54 56 59 55 56 57 57 57 56 56 56 57 59 60 59 60 62 64 66 66 66 65 66 68 69 69 70 72 71 74 75 75 77 77 70 66 67 69 70 71 70
59 57 57 58 58 58 56 55 55 54 55 54 54 55 55 57 59 62 62 62 64 65 65 64 65 66 66 68 70 72 70 72 73 74 76 73 66 65 66 67 68 68 68 66
55 55 56 55 58 58 57 57 57 57 56 56 57 57 57 59 61 63 64 64 66 67 68 68 65 66 68 70 70 70 70 72 74 73 68 63 63 64 65 66 66 65 65 62
62 63 62 61 56 53 53 53 53 54 55 54 55 59 61 62 63 65 67 66 67 68 67 65 66 68 69 67 68 69 71 71 66 61 60 62 63 64 64 63 62 62 60 58
59 56 55 56 59 63 64 63 63 62 62 64 61 60 62 63 64 64 61 62 63 63 63 64 64 63 64 67 70 72 69 60 58 59 59 62 62 63 63 61 60 57 56 57
Wind_Direction
270 271 275 271 268 269 271 271 269 270 268 264 262 260 264 259 262 269 270 273 278 277 274 273 271 270 271 268 267 272 275 273 273 274 277 278 280 279 279 277 277 278 279 277
270 274 271 265 267 269 269 269 270 265 264 263 264 263 260 262 260 269 272 275 277 277 274 270 273 273 274 273 271 272 274 277 277 277 277 278 278 278 278 280 286 286 286 287
270 268 263 264 264 268 270 269 268 266 266 265 267 264 260 259 264 272 275 274 274 273 271 267 268 273 274 271 267 267 269 270 276 276 278 279 280 284 286 287 288 288 288 290
264 264 266 263 264 266 267 268 268 269 270 271 267 265 260 258 258 270 274 271 269 267 265 266 268 274 276 272 271 269 269 272 273 280 281 283 286 289 291 290 291 292 290 290
261 260 261 263 263 264 268 269 269 270 271 270 267 270 265 262 266 272 274 269 265 263 264 266 269 270 271 268 266 267 269 271 274 279 281 282 285 288 290 290 288 286 286 285
258 260 260 261 262 262 267 271 269 269 269 266 270 270 268 272 274 270 270 267 262 262 265 267 268 270 270 269 267 267 270 272 276 281 285 287 286 286 288 290 288 287 287 287
259 259 259 260 259 260 268 273 272 270 265 269 275 271 267 272 275 269 264 260 260 263 267 270 274 274 273 273 274 276 277 278 283 287 289 287 284 286 287 287 289 289 289 289
261 265 265 266 263 264 264 268 271 271 271 274 272 270 272 269 270 265 265 262 260 265 267 271 274 276 278 277 276 278 279 280 283 286 289 290 291 289 288 288 290 292 292 292
264 260 261 261 263 261 261 264 274 270 266 270 272 273 271 269 270 269 268 270 268 265 266 270 273 273 273 274 277 279 280 281 286 288 288 290 291 291 290 291 293 294 294 294
265 266 267 265 262 260 262 267 268 266 266 271 273 273 272 268 268 272 275 274 275 274 274 275 274 274 273 273 276 279 280 283 287 286 288 290 289 289 290 295 295 296 297 298
265 267 269 266 261 264 265 263 263 264 262 265 268 270 265 262 270 277 275 277 280 283 280 276 277 278 278 280 283 284 284 285 288 287 288 290 292 292 294 295 297 299 300 299
262 267 264 263 262 260 258 257 257 259 263 262 264 264 261 265 270 272 276 282 284 281 280 279 280 280 279 282 285 285 287 288 289 290 291 290 291 293 294 295 298 299 298 296
258 259 258 256 256 257 259 264 267 266 264 265 261 267 263 268 275 279 280 281 282 280 280 283 283 282 283 283 284 285 285 287 289 288 288 289 293 295 296 297 298 297 297 297
254 251 253 253 259 260 258 259 259 260 260 266 265 265 264 269 273 276 278 280 281 281 284 285 283 283 283 282 285 285 286 287 286 288 289 293 294 294 296 297 297 297 297 296
254 255 254 248 255 259 260 258 256 259 268 262 270 264 264 267 268 273 278 280 286 283 278 279 282 284 280 281 284 285 286 287 288 288 291 293 294 297 298 298 298 295 293 295
257 262 259 253 254 256 256 257 260 257 257 261 266 266 265 270 272 274 278 279 280 277 279 281 282 280 279 283 284 285 288 287 288 290 291 293 296 297 296 295 293 294 296 297
253 257 258 256 257 256 255 260 262 263 262 262 261 267 266 270 271 274 276 276 276 275 278 276 276 278 282 283 283 286 285 285 288 291 291 293 294 292 292 293 293 295 298 299
251 251 256 258 258 257 261 262 264 262 261 263 265 267 266 268 269 269 272 271 276 277 274 275 277 280 280 282 283 283 285 288 290 291 292 291 291 292 292 293 295 297 297 298
248 252 254 256 259 263 262 263 264 263 263 263 265 265 267 270 270 271 270 274 272 271 275 277 278 279 280 281 281 283 287 289 292 292 291 289 291 293 294 295 296 296 296 298
251 254 255 257 259 260 265 264 265 269 268 265 265 267 269 269 271 275 274 272 271 273 275 278 278 278 279 281 284 287 290 293 292 289 289 291 292 293 293 293 293 294 297 299
250 251 254 258 260 262 262 263 266 265 267 269 272 274 275 274 273 272 271 270 271 274 276 277 279 280 283 286 289 294 294 291 288 289 290 290 290 291 291 292 294 297 299 299
248 247 249 252 256 259 262 263 263 265 268 270 271 271 271 271 272 271 270 272 274 277 279 280 282 285 289 292 293 292 289 287 287 287 287 288 289 289 291 293 295 297 297 297
246 248 251 252 257 262 264 263 264 265 265 266 266 267 267 268 269 271 273 277 279 280 281 284 288 290 290 289 287 285 285 285 285 287 288 289 288 291 293 294 295 295 295 295
251 255 257 259 258 259 261 263 264 265 265 265 266 269 271 273 276 279 281 281 282 283 284 286 286 285 285 283 283 283 283 284 287 288 288 289 291 292 292 293 293 293 294 296
262 264 264 264 261 262 262 263 265 264 265 267 268 272 275 278 278 276 276 277 278 280 280 280 280 280 279 281 282 283 285 286 286 286 287 289 289 290 291 292 292 294 295 297
272 273 269 267 264 256 259 268 273 273 271 273 272 273 275 274 273 274 276 277 277 278 277 277 278 280 281 282 285 286 287 286 285 287 287 288 289 290 291 293 294 296 296 296